User: anonymous   Login
Location: Unspecified
(0.0000°N, 0.0000°E)
Time: 08:13:17
(UTC+02:00)
Language:

Cosmos 494 Rocket - Orbit

View from above orbital plane
View from above orbital plane
View from above satellite
View from above satellite

Ground track
Ground track

The orbit data is extracted from the following two-line orbital elements,

1 06061U 72043B   15148.92106067  .00000046  00000-0  22854-4 0  9994
2 06061 074.0556 125.6930 0018786 084.4835 275.8462 14.40365705250286
Epoch (UTC): 28 May 2015 22:06:19
Eccentricity: 0.0018786
inclination: 74.0556°
perigee height: 744 km
apogee height: 770 km
right ascension of ascending node: 125.6930°
argument of perigee: 84.4835°
revolutions per day: 14.40365705
mean anomaly at epoch: 275.8462°
orbit number at epoch: 25028

The dashed part of the orbit path shows where the satellite is in the earth's shadow,  

DLR